Date String (YYYY-MM-DD hh:mm:ss) UTC,Instrument flags,absolute air pressure of the measurement (hPa),sample flow rate (lpm),inlet stack bypass flow (lpm),air temperature of the measurement (°C),ambient temperature measured by the external sensor (°C),aerosol sample conditioner tube jacket temperature (°C),OPC LED temperature (°C),internal box temperature (°C),relative humidity of the measurement (%),span deviation,mass concentration of particles derived from Lorenz-Mie calculation of OPC scattering (μg/m³),mass concentration of particles derived from Lorenz-Mie calculation of OPC scattering (μg/m³),mass concentration of particles derived from Lorenz-Mie calculation of OPC scattering (μg/m³)
DateTimeUTC,F1_M11,P_M11,Q1_M11,Q2_M11,T1_M11,T2_M11,T3_M11,T4_M11,T5_M11,U1_M11,ZSPAN_M11,X0_M11,X2_M11,X1_M11
2024-01-12 11:00:00,SystemResetWarning,0817.7,4.99,000.00,019.0,018.6,000.0,027.3,020.0,6.4,0000.0,0001.12,0000.63,0000.46
2024-01-12 11:01:00,SystemResetWarning,0817.7,5.02,000.00,019.0,018.3,000.0,027.4,020.0,6.4,0000.0,0001.06,0000.62,0000.46
2024-01-12 11:02:00,SystemResetWarning,0817.7,5.00,000.00,018.9,018.1,000.0,027.4,020.0,6.5,0000.0,0000.99,0000.61,0000.46
2024-01-12 11:03:00,SystemResetWarning,0817.8,4.99,000.00,018.9,018.0,000.0,027.4,020.0,6.5,0000.0,0001.01,0000.61,0000.46
2024-01-12 11:04:00,SystemResetWarning,0817.8,4.99,000.00,018.9,017.8,000.0,027.4,020.0,6.5,0000.0,0001.06,0000.64,0000.47
2024-01-12 11:05:00,SystemResetWarning,0817.8,5.00,000.00,018.9,017.8,000.0,027.4,020.1,6.5,0000.0,0001.09,0000.65,0000.47
2024-01-12 11:06:00,SystemResetWarning,0817.7,5.02,000.00,018.9,018.4,000.0,027.3,020.5,6.5,0000.0,0001.04,0000.62,0000.46
2024-01-12 11:07:00,SystemResetWarning,0817.8,4.99,000.00,019.1,019.1,000.0,027.3,020.8,6.5,0000.0,0000.92,0000.60,0000.46
2024-01-12 11:08:00,SystemResetWarning,0817.8,4.99,000.00,019.1,019.1,000.0,027.3,020.4,6.5,0000.0,0001.04,0000.63,0000.46
2024-01-12 11:09:00,SystemResetWarning,0817.8,5.00,000.00,019.0,018.8,000.0,027.3,020.0,6.5,0000.0,0001.12,0000.66,0000.46
2024-01-12 11:10:00,SystemResetWarning,0817.7,5.01,000.00,019.0,018.5,000.0,027.3,020.0,6.5,0000.0,0001.08,0000.65,0000.46
2024-01-12 11:11:00,SystemResetWarning,0817.8,5.00,000.00,019.0,018.3,000.0,027.4,020.0,6.5,0000.0,0001.03,0000.63,0000.46
2024-01-12 11:12:00,SystemResetWarning,0817.8,5.00,000.00,018.9,018.1,000.0,027.4,020.0,6.6,0000.0,0001.04,0000.62,0000.45
2024-01-12 11:13:00,SystemResetWarning,0817.8,5.00,000.00,018.9,017.9,000.0,027.4,020.0,6.6,0000.0,0001.06,0000.62,0000.45
2024-01-12 11:14:00,SystemResetWarning,0817.8,4.99,000.00,018.9,017.8,000.0,027.4,020.1,6.6,0000.0,0001.03,0000.61,0000.45
2024-01-12 11:15:00,SystemResetWarning,0817.8,5.01,000.00,018.9,018.3,000.0,027.3,020.5,6.6,0000.0,0001.03,0000.61,0000.45
2024-01-12 11:16:00,SystemResetWarning,0817.8,5.02,000.00,019.1,019.0,000.0,027.3,020.9,6.5,0000.0,0001.13,0000.60,0000.44
2024-01-12 11:17:00,SystemResetWarning,0817.8,4.99,000.00,019.1,019.1,000.0,027.3,020.4,6.5,0000.0,0001.19,0000.62,0000.45
2024-01-12 11:18:00,SystemResetWarning,0817.8,4.99,000.00,019.0,018.8,000.0,027.3,020.1,6.5,0000.0,0001.22,0000.63,0000.45
2024-01-12 11:19:00,SystemResetWarning,0817.8,5.01,000.00,019.0,018.6,000.0,027.3,020.0,6.5,0000.0,0001.15,0000.61,0000.45
2024-01-12 11:20:00,SystemResetWarning,0817.8,5.01,000.00,019.0,018.3,000.0,027.4,020.0,6.5,0000.0,0001.16,0000.63,0000.46
2024-01-12 11:21:00,SystemResetWarning,0817.8,5.00,000.00,018.9,018.2,000.0,027.4,020.0,6.5,0000.0,0001.21,0000.63,0000.46
2024-01-12 11:22:00,SystemResetWarning,0817.7,4.99,000.00,018.9,018.0,000.0,027.4,020.0,6.5,0000.0,0001.34,0000.64,0000.46
2024-01-12 11:23:00,SystemResetWarning,0817.8,4.99,000.00,018.9,017.9,000.0,027.4,020.1,6.6,0000.0,0001.38,0000.65,0000.46
2024-01-12 11:24:00,SystemResetWarning,0817.8,5.00,000.00,019.0,018.3,000.0,027.4,020.5,6.5,0000.0,0001.43,0000.64,0000.46
2024-01-12 11:25:00,SystemResetWarning,0817.8,5.01,000.00,019.1,019.1,000.0,027.4,020.9,6.5,0000.0,0001.46,0000.64,0000.46
2024-01-12 11:26:00,SystemResetWarning,0817.8,4.98,000.00,019.1,019.1,000.0,027.3,020.5,6.5,0000.0,0001.45,0000.65,0000.46
2024-01-12 11:27:00,SystemResetWarning,0817.7,5.00,000.00,019.1,018.9,000.0,027.3,020.1,6.5,0000.0,0001.29,0000.62,0000.45
2024-01-12 11:28:00,SystemResetWarning,0817.7,5.01,000.00,019.0,018.6,000.0,027.3,020.0,6.6,0000.0,0001.24,0000.60,0000.44
2024-01-12 11:29:00,SystemResetWarning,0817.7,5.00,000.00,019.0,018.4,000.0,027.4,020.0,6.6,0000.0,0001.24,0000.61,0000.44
2024-01-12 11:30:00,SystemResetWarning,0817.7,4.99,000.00,018.9,018.2,000.0,027.4,020.0,6.6,0000.0,0001.24,0000.62,0000.44
2024-01-12 11:31:00,SystemResetWarning,0817.7,5.00,000.00,018.9,018.0,000.0,027.4,020.0,6.6,0000.0,0001.18,0000.60,0000.43
2024-01-12 11:32:00,SystemResetWarning,0817.8,5.00,000.00,018.9,017.8,000.0,027.4,020.1,6.6,0000.0,0001.18,0000.62,0000.44
2024-01-12 11:33:00,SystemResetWarning,0817.7,5.02,000.00,019.0,018.2,000.0,027.4,020.5,6.6,0000.0,0001.15,0000.65,0000.44
2024-01-12 11:34:00,SystemResetWarning,0817.8,5.00,000.00,019.1,019.0,000.0,027.4,020.9,6.6,0000.0,0001.17,0000.64,0000.43
2024-01-12 11:35:00,SystemResetWarning,0817.8,5.00,000.00,019.2,019.1,000.0,027.4,020.6,6.6,0000.0,0001.22,0000.63,0000.44
2024-01-12 11:36:00,SystemResetWarning,0817.7,4.99,000.00,019.1,018.9,000.0,027.3,020.1,6.6,0000.0,0001.19,0000.62,0000.43
2024-01-12 11:37:00,SystemResetWarning,0817.7,4.99,000.00,019.0,018.7,000.0,027.4,020.0,6.6,0000.0,0001.22,0000.63,0000.42
2024-01-12 11:38:00,SystemResetWarning,0817.7,5.00,000.00,019.0,018.4,000.0,027.4,020.0,6.6,0000.0,0001.25,0000.64,0000.43
2024-01-12 11:39:00,SystemResetWarning,0817.8,5.00,000.00,018.9,018.2,000.0,027.4,020.0,6.6,0000.0,0001.26,0000.65,0000.43
2024-01-12 11:40:00,SystemResetWarning,0817.7,5.00,000.00,018.9,018.0,000.0,027.4,020.0,6.6,0000.0,0001.28,0000.64,0000.43
2024-01-12 11:41:00,SystemResetWarning,0817.7,5.00,000.00,018.9,018.0,000.0,027.4,020.2,6.6,0000.0,0001.25,0000.62,0000.42
2024-01-12 11:42:00,SystemResetWarning,0817.8,5.00,000.00,019.0,018.7,000.0,027.4,020.7,6.6,0000.0,0001.22,0000.62,0000.42
2024-01-12 11:43:00,SystemResetWarning,0817.7,5.00,000.00,019.1,019.2,000.0,027.4,020.8,6.5,0000.0,0001.41,0000.61,0000.41
2024-01-12 11:44:00,SystemResetWarning,0817.8,4.99,000.00,019.1,019.0,000.0,027.3,020.3,6.4,0000.0,0001.40,0000.61,0000.40
2024-01-12 11:45:00,SystemResetWarning,0817.8,5.00,000.00,019.0,018.7,000.0,027.3,020.0,6.5,0000.0,0001.44,0000.64,0000.41
2024-01-12 11:46:00,SystemResetWarning,0817.8,5.00,000.00,019.0,018.5,000.0,027.4,020.0,6.5,0000.0,0001.39,0000.65,0000.41
2024-01-12 11:47:00,SystemResetWarning,0817.8,5.00,000.00,019.0,018.2,000.0,027.4,020.0,6.5,0000.0,0001.40,0000.65,0000.41
2024-01-12 11:48:00,SystemResetWarning,0817.8,5.00,000.00,018.9,018.0,000.0,027.4,020.0,6.5,0000.0,0001.36,0000.63,0000.41
2024-01-12 11:49:00,SystemResetWarning,0817.8,5.00,000.00,018.9,017.8,000.0,027.4,020.0,6.5,0000.0,0001.38,0000.63,0000.40
2024-01-12 11:50:00,SystemResetWarning,0817.8,5.01,000.00,018.9,018.2,000.0,027.4,020.4,6.5,0000.0,0001.40,0000.64,0000.40
2024-01-12 11:51:00,SystemResetWarning,0817.8,5.00,000.00,019.1,019.0,000.0,027.4,020.9,6.5,0000.0,0001.36,0000.63,0000.40
2024-01-12 11:52:00,SystemResetWarning,0817.8,5.00,000.00,019.2,019.2,000.0,027.4,020.6,6.4,0000.0,0001.38,0000.62,0000.39
2024-01-12 11:53:00,SystemResetWarning,0817.8,4.99,000.00,019.1,018.9,000.0,027.3,020.1,6.5,0000.0,0001.44,0000.62,0000.39
2024-01-12 11:54:00,SystemResetWarning,0817.8,4.99,000.00,019.0,018.6,000.0,027.4,020.0,6.5,0000.0,0001.43,0000.62,0000.39
2024-01-12 11:55:00,SystemResetWarning,0817.8,5.00,000.00,019.0,018.4,000.0,027.4,020.0,6.5,0000.0,0001.22,0000.58,0000.39
2024-01-12 11:56:00,SystemResetWarning,0817.8,5.00,000.00,019.0,018.2,000.0,027.4,020.0,6.5,0000.0,0001.11,0000.53,0000.39
2024-01-12 11:57:00,SystemResetWarning,0817.8,5.00,000.00,018.9,018.0,000.0,027.4,020.0,6.5,0000.0,0001.59,0000.52,0000.38
2024-01-12 11:58:00,SystemResetWarning,0817.7,5.01,000.00,018.9,017.8,000.0,027.4,020.0,6.5,0000.0,0001.62,0000.53,0000.39
2024-01-12 11:59:00,SystemResetWarning,0817.8,5.01,000.00,018.9,018.2,000.0,027.4,020.4,6.5,0000.0,0001.64,0000.54,0000.39
